Regional Weather Roundup
Issued by NWS Charleston, SC

Current Version | Previous Version | Text Only | Print | Product List | Glossary On
Versions: 1 2 3 4 5 6 7 8 9 10 11 12 13 14 15 16 17 18 19 20 21 22 23 24 25 26 27 28 29 30 31 32 33 34 35 36 37 38 39 40 41 42 43 44 45 46 47 48 49 50
687 ASUS42 KCHS 221412 RWRCHS REGIONAL WEATHER ROUNDUP NATIONAL WEATHER SERVICE CHARLESTON SC 900 AM EST SUN JAN 22 2017 NOTE: "FAIR" INDICATES FEW OR NO CLOUDS BELOW 12,000 FEET WITH NO SIGNIFICANT WEATHER AND/OR OBSTRUCTIONS TO VISIBILITY. NOT ALL STATIONS ARE QUALITY CONTROLLED. USE DATA WITH CAUTION... ESPECIALLY DEWPOINT OBSERVATIONS. SCZ027-030-031-034>040-042>050-221500- ...SOUTHEAST SOUTH CAROLINA... CITY SKY/WX TMP DP RH WIND PRES REMARKS N CHARLESTON LGT RAIN 61 59 93 NE5 29.65F FOG WATERFRONT PRK N/A 60 60 100 VRB3 29.69R MOUNT PLEASANT RAIN 61 61 100 N5 29.64R JOHNS ISLAND CLOUDY 61 61 100 CALM 29.67F PINOPOLIS NOT AVBL MONCKS CORNER HVY RAIN 59 57 94 N7 29.69R SUMMERVILLE LGT RAIN N/A N/A N/A W5 29.70R BEAUFORT MCAS TSTM 62 60 93 S6 29.66R FOG BEAUFORT ARPT CLOUDY 61 59 94 CALM 29.67R HILTON HEAD IS TSTM 61 61 100 N6 29.68S WALTERBORO RAIN 59 59 100 NE7 29.67R ALLENDALE FAIR 61 59 94 E5 29.64S ...SOUTHERN MIDLANDS AND PEE DEE... CITY SKY/WX TMP DP RH WIND PRES REMARKS GEORGETOWN TSTM 59 59 100 N10 29.69R VSB 1 KINGSTREE RAIN 59 57 94 N3 29.70R ORANGEBURG CLOUDY 60 59 96 E8 29.63F BARNWELL PTSUNNY 61 61 100 SE8 29.63R AIKEN CLOUDY 57 55 94 SE9 29.65R MANNING RAIN 59 55 88 E3 29.67F COLUMBIA CLOUDY 60 58 92 SE7 29.62R SUMTER CLOUDY 59 57 94 CALM 29.61F FLORENCE CLOUDY 60 59 96 SE7 29.65F MYRTLE BEACH RAIN 61 55 82 VRB7 29.69F N MYRTLE BEACH RAIN 59 59 100 NE5 29.67F FOG $$ GAZ063-065-086>088-099>101-113>116-118-119-134>141-150-221500- ...SOUTHEAST GEORGIA... CITY SKY/WX TMP DP RH WIND PRES REMARKS SAVANNAH ARPT TSTM 60 58 92 SE6 29.68R HUNTER AAF CLOUDY 60 60 100 CALM 29.64R THUNDER FOG FORT STEWART HVY RAIN 62 60 94 CALM 29.65R FOG STATESBORO LGT RAIN 62 32 32 S8 29.63R SYLVANIA CLOUDY N/A N/A N/A SE3G16 29.63S CLAXTON CLOUDY N/A N/A N/A S6 29.63F ...CSRA...CENTRAL AND FAR SOUTHEAST GEORGIA... CITY SKY/WX TMP DP RH WIND PRES REMARKS THOMSON CLOUDY 61 61 100 CALM 29.65R AUGUSTA-BUSH PTSUNNY 63 59 87 E6 29.61S AUGUSTA-DANIEL CLOUDY 61 57 87 E8 29.62S SWAINSBORO CLOUDY 61 61 100 E9 29.60S VIDALIA LGT RAIN 63 63 100 S6 29.60R EASTMAN FOG 62 62 100 CALM 29.60S VSB 1 HAZLEHURST PTSUNNY 64 64 100 S6 29.59R ALMA TSTM 61 61 100 N3 29.61R FOG WAYCROSS TSTM 67 67 100 W17 29.64R JESUP RAIN 63 59 88 SW3 29.64R BAXLEY NOT AVBL BRUNSWICK CLOUDY 70 68 94 CALM 29.64S SAINT SIMONS CLOUDY 67 63 87 MISG 29.64R $$ SCZ027-028-034-036>038-045-046-048>050-GAZ119-141-221500- ...LAKE AND SUPPLEMENTAL COASTAL OBSERVATIONS... STATION/POSITION TIME TEMP WIND PRES WAVE SWELL AIR SEA DIR/SP/G HT/PER HT/PER/DIR (UTC) (F) (DEG/KT/KT) (MB) (FT/S) (FT/S/D) WINYAH BAY 1245 59 40/ 2 1005.0 LAKE MURRAY 1320 58 70/ 6/ 11 1001.7 ACE BASIN NERRS 1245 60 130/ 4 1004.0 FORT PULASKI 1342 60 59 190/ 4/ 6 N/A SAPELO ISLAND 1300 65 180/ 7 1004.0 $$ ANZ835-935-AMZ111-154-330-350-352-354-370-450-454-472-221500- ...C-MAN AND BUOY OBSERVATIONS... STATION/POSITION TIME TEMP WIND PRES WAVE SWELL AIR SEA DIR/SP/G HT/PER HT/PER/DIR (UTC) (F) (DEG/KT/KT) (MB) (FT/S) (FT/S/D) BUOY 41004 1250 64 68 310/ 4/ 4 1004.1 4/ 6 3/200/ 6 BUOY 41008 1250 65 61 190/ 17/ 21 1002.9 5/ 6 2/170/11 FOLLY BEACH CMAN 1300 59 80/ 5/ 5 1004.0F CAPERS NEARSHORE 1308 58 56 90/ 4/ 6 1004.0F FRIPP NEARSHORE 1308 60 59 350/ 8/ 14 1005.3R STATION/POSITION TIME TEMP WIND PRES WAVE SWELL AIR SEA DIR/SP/G HT/PER HT/PER/DIR (UTC) (F) (DEG/KT/KT) (MB) (FT/S) (FT/S/D) 5E ST. MARYS GA 1330 63 N/A 4/ 5 2/100/12 FRYING PAN BUOY 1350 63 69 310/ 16/ 19 1004.5F 5/ 7 3/190/ 7 BUOY 41025 1350 65 73 260/ 17/ 21 1004.7R 6/ 5 2/100/12 CAPE LOOKOUT NC 1300 59 270/ 13/ 17 1004.7R BUOY 41002 1250 73 71 210/ 17/ 21 1007.9 7/ 6 3/ 30/14 BUOY 41010 NOT AVBL ST AUGUSTINE FL 1400 72 64 190/ 18/ 21 1004.8F $$

USA.gov is the U.S. government's official web portal to all federal, state and local government web resources and services.